Погода в Норильске

Погода в Норильске : погода сейчас, прогноз погоды и архив. Всё, что Вы хотите узнать о погоде в Норильске!

Поиск расширенной информации на нашем сайте:

Другие новости

Новости СМИ2

Главная страница сайта

Новости сайта

03.07.2017

Напоминаем, что на нашем специализированном сайте Метеоцентр.Азия вы можете получить высокодетализированные автоматические прогнозы погоды по пунктам России, СНГ и мира в авиационном формате (включающие направление и скорость ветра, видимость, явления погоды, количество и форму облачности, нижнюю и верхнюю границу облачности).

Рекомендуем: Рамблер топ100 строительство и ремонт москва.

Погода в Норильске - сегодня

Время (UTC), дата Ветер
(°,м/с) 
Видим.   Явления Облачность Т
(°С)
Тd
(°С)
f(%) Тe
(°С)
Pmin
(гПа)
dP
(гПа)
Po
(мм)
O2
(г/м3)
Тmin Tmax R s Состояние
почвы
15 18.09.17 090 (В) 20000 м    9/9 600 м 
[Sc]
+6.5 +0.7 66 +7  1014.2  0.5  755  297           
18 18.09.17 080 (В) 20000 м    4/4 600 м 
[Sc]
+4.9 -1.3 64 +5  1015.2  755  299           
21 18.09.17 120 (ЮВ) 20000 м    4/4 600 м 
[Sc]
+2.1 -1 80 +1  1016.1  0.8  756  302           
00 19.09.17 130 (ЮВ) 20000 м    4/0 средняя 
[Ac trans]
+1.8 -1.9 76 +3  1017.1  757  303  +0.9         
03 19.09.17 160 (Ю) 20000 м    4/4 2000 м средняя 
[Ac trans]
+6.1 +0.2 66 +5  1018.5  1.5  758  299           
06 19.09.17 140 (ЮВ) 20000 м    ясно 
+8.1 +0.6 59 +7  1018.9  0.4  758  297           
09 19.09.17 тихо ()   20000 м    3/3 2000 м средняя 
[Ac trans]
+9.9 -0.7 48 +10  1019  0.2  758  295           
12 19.09.17 270 (З) 20000 м    ясно 
+7.8 +0.5 60 +8  1019.4  0.3  759  297    +10.7       
15 19.09.17 310 (СЗ) 20000 м    ясно 
+4.3 +0.9 79 +3  1020  0.6  759  301           
18 19.09.17 300 (СЗ) 0500 м  туман  ясно 
+0 +0 100 -2  1020.7  0.5  759  306           
21 19.09.17 290 (З) 0500 м  туман  ?/?  
-1.3 -1.3 100 -2  1020.7  759  308           
00 20.09.17 тихо ()   0200 м  туман  ?/?  
-2.3 -2.3 100 -2  1020.5  -0.3  759  309  -2.3         
03 20.09.17 тихо ()   0050 м  туман  ?/?  
-2.2 -2.2 100 -2  1020.6  0.1  759  309  -2.7         
06 20.09.17 320 (СЗ) 0200 м  туман  ?/?  
-0.7 -0.8 99 -3  1020.1  -0.4  759  307           
09 20.09.17 360 (С) 0200 м  туман  ?/?  
+0.2 +0.2 100 -2  1018.9  -1.1  758  305           
12 20.09.17 320 (СЗ) 4000 м  дымка{туман}  ясно 
+0.7 +0.2 96 -1  1018.5  -0.4  758  305    +0.7       
15 20.09.17 270 (З) 4000 м  дымка  10/10 300 м 
[St]
+0.9 -0.8 88 -1  1017.7  -0.8  757  304           
18 20.09.17 310 (СЗ) 20000 м    10/10 600 м 
[Sc]
+1.7 -0.8 83 +2  1016.2  -1.2  751  301           
21 20.09.17 310 (СЗ) 20000 м  {ливн. осадки}  10/10 600 м 
[Sc]
+0.9 -1.1 86 -1  1015.1  -1.1  755  303           
00 21.09.17 290 (З) 4000 м  слаб. ливневой снег  10/10 300 м кучево-дожд. 
[Cb cap]
+0 +0 100 -1  1014.5  -0.7  755  304    +0.1     
03 21.09.17 300 (СЗ) 2000 м  дымка{ливн. осадки}  10/8 600 м средняя 
[Sc|Ac und]
+0.8 +0.5 98 1014  -0.4  754  303  +0         
06 21.09.17 310 (СЗ) 20000 м  {ливн. осадки}  9/8 600 м средняя 
[Sc|Ac trans]
+1.5 -1 83 -1  1014.1  0.1  755  302           
09 21.09.17 320 (СЗ) 5-10{11}  20000 м    6/3 600 м верхняя 
[Sc|Ci fib]
+0.3 -3.7 74 -3  1014.3  0.2  755  304           
12 21.09.17 020 (С) 5{12}  20000 м    4/1 600 м верхняя 
[Sc|Ci fib]
-0.8 -6.2 67 -4  1015.4  755  306    +1.7       
15 21.09.17 350 (С) 20000 м    ясно 
-2 -6.2 73 -5  1016.1  0.7  756  308           
Время (UTC), дата Ветер
(°,м/с) 
Видим.   Явления Облачность Т
(°С)
Тd
(°С)
f(%) Тe
(°С)
Pmin
(гПа)
dP
(гПа)
Po
(мм)
O2
(г/м3)
Тmin Tmax R s Состояние
почвы

Для получения пояснительной информации подведите курсор к названию столбца.

ПОГОДА в Норильске - архив

Всё, что Вы хотите узнать о погоде в Норильске - удобно и подробно!

Выберите нужную дату (начиная с 1 января 2015* года) и нажмите кнопку "Найти".
Будут отображены архивные сводки погоды по пункту Норильск, начиная с указанной даты.


Отображать данные в формате CSV (для использования в таблицах Excel)


Внимание! Наш архив погоды предназначен исключительно для личного некоммерческого использования в познавательных целях. Если Вам необходимы официальные справки о состоянии погоды (для производственных, юридических, коммерческих и т.п. целей), обращайтесь в органы Росгидромета.

*Примечание: данная дата относится к архиву по метеостанциям СССР (Россия, СНГ, Балтия).
Архив по метеостанциям Зарубежной Европы и Азии (кроме Китая) хранится 10 дней, по другим регионам земного шара (Китай, Африка, Америка, Австралия, Океания) - 1 день.

Норильск - район местоположения метеостанции


Название, широта, долгота, высота метеостанции:
Норильск (Алыкель) 69.3°ш. 87.2°д. 175 м над ур. моря [Российская Федерация]

Дополнительная информация

В oтличие oт бoльшинства пoгoдных сайтoв мы публикуем пoдрoбную метеoинфoрмацию в детальнoм прoфессиoнальнoм фoрмате.

Характеристики температуры и влажнoсти вoздуха измеряются на высoте 2 м в тени вдали oт зданий и деревьев.
Скoрoсть ветра измеряется на высoте 10 м (на урoвне рoста челoвека скoрoсть ветра ниже в 1.5-2 раза). Если метеoстанция нахoдится в гoрoде или в лесу, тo скoрoсть ветра занижена на 2-4 м/с пo сравнению с oткрытым местoм. Скoрoсть ветра над акватoриями крупных рек и oзёр, а также на вершинах хoлмoв на 2-5 м/с выше, чем в oбычных услoвиях.
Атмoсфернoе давление в разных тoчках местнoсти мoжет значительнo oтличаться oт давления на метеoстанции, в зависимoсти oт услoвий рельефа (при пoдъёме на 10 м давление пoнижается примернo на 1 мм рт.ст.).